Wind_Speed
67 66 63 59 59 54 55 55 49 50 49 47 46 48 46 44 38 35 33 30 28 25 23 21 18 17 17 16 18 18 18 15
74 74 72 67 64 64 59 56 57 54 53 50 51 47 48 50 45 42 39 36 33 31 28 27 22 19 20 19 19 17 18 15
83 83 81 75 71 70 67 63 59 59 57 54 52 52 52 55 53 50 45 42 38 35 33 31 28 25 23 23 22 21 21 17
82 88 86 84 77 75 75 69 67 62 60 56 56 54 56 56 51 53 50 47 44 41 39 37 34 32 29 27 25 25 24 22
64 73 86 84 80 79 80 78 73 71 67 64 60 59 58 57 54 55 57 55 51 48 46 42 41 40 35 31 30 28 28 27
55 56 61 77 77 74 77 78 77 75 73 70 64 62 62 61 63 59 61 61 57 53 52 48 45 45 41 38 35 32 30 32
46 50 51 54 68 69 70 72 74 75 78 76 73 65 65 65 66 65 60 59 58 57 55 53 51 46 47 42 40 39 35 34
31 41 47 47 52 68 68 70 71 70 76 79 78 75 68 68 69 70 68 63 62 65 62 61 56 53 49 48 46 44 40 39
31 30 34 42 45 57 69 68 67 70 70 77 81 80 75 70 68 73 72 72 68 66 63 64 62 61 55 52 53 49 47 45
27 22 26 28 37 42 62 69 66 69 70 71 76 81 80 75 70 67 72 72 70 70 70 69 68 61 60 57 54 52 52 50
33 30 27 22 21 31 39 65 68 67 66 70 71 79 82 80 76 71 67 70 73 72 70 72 66 65 63 63 61 57 56 55
38 36 35 22 19 18 28 35 63 72 70 68 72 73 78 78 81 79 75 70 69 74 73 73 73 66 65 67 66 64 63 58
41 41 40 36 29 22 21 24 35 48 77 74 73 74 76 76 73 78 78 74 73 74 74 76 74 76 73 73 69 67 67 64
32 40 43 43 40 36 32 27 28 36 39 56 81 79 79 81 83 81 81 80 79 78 77 78 77 79 82 79 79 72 69 67
26 29 33 38 46 47 46 45 41 38 38 38 47 77 84 83 81 87 85 82 83 83 83 83 82 82 87 75 83 81 78 72
21 24 26 27 27 30 34 43 46 49 47 43 44 46 54 81 86 84 88 86 86 87 89 86 89 87 85 83 77 89 67 79
20 22 23 23 26 28 27 27 29 38 45 53 49 51 51 54 56 79 90 93 91 91 92 92 91 90 93 89 88 79 91 82
30 29 28 28 29 28 30 30 27 25 31 39 47 57 56 53 55 55 58 75 97 99 95 92 95 97 94 94 93 96 87 86
35 32 33 35 32 32 30 30 27 27 26 28 33 40 52 62 59 56 54 55 63 93 103 100 97 99 100 98 94 93 91 85
Wind_Direction
251 251 251 251 252 247 246 244 238 237 239 239 232 233 229 232 232 232 237 238 244 248 257 260 255 266 272 268 257 252 247 233
244 247 246 245 247 248 246 241 241 236 234 236 237 232 230 230 229 231 232 235 238 244 244 251 256 258 265 269 269 267 261 246
237 238 240 240 240 243 243 242 238 239 235 235 238 235 233 229 226 228 228 231 234 240 246 247 251 255 256 264 268 269 267 258
244 236 233 235 236 236 239 237 239 236 237 231 235 233 234 237 235 228 229 229 230 235 240 245 246 247 252 254 261 268 267 265
250 244 239 231 232 232 234 235 233 236 235 233 230 233 232 233 238 235 232 232 228 229 233 236 243 247 245 249 252 258 264 269
257 251 247 240 234 234 234 234 232 231 236 236 232 226 232 228 229 237 236 234 236 231 230 233 234 241 248 247 249 251 255 263
265 256 251 249 238 234 234 234 234 230 232 236 238 231 227 228 228 230 234 236 237 238 238 234 236 235 241 244 244 246 248 252
277 267 258 252 247 234 233 234 232 232 230 235 237 238 234 227 229 229 230 234 236 240 241 240 236 236 237 241 241 243 246 246
270 273 268 261 252 242 233 233 235 232 231 231 236 238 237 235 230 232 233 232 235 236 239 239 241 240 236 235 241 241 241 243
268 264 274 278 261 253 241 235 234 236 232 230 233 238 238 236 235 232 231 233 233 236 238 240 236 237 240 241 238 240 241 239
291 295 280 271 272 257 253 241 239 232 236 235 233 234 238 239 237 236 234 232 233 233 237 239 242 238 235 240 243 241 241 239
278 282 287 275 264 276 262 257 242 238 235 235 234 234 238 240 239 235 236 236 235 233 234 237 240 243 239 240 238 243 245 241
272 278 282 281 274 270 265 265 251 248 241 238 237 236 233 239 240 240 233 234 236 236 233 235 237 242 242 239 243 239 243 245
266 270 274 277 276 274 271 260 258 251 253 253 239 237 237 234 239 241 239 233 232 234 234 234 236 238 239 239 239 242 242 243
272 267 265 269 270 271 270 267 264 262 256 252 250 244 238 241 237 238 240 239 234 231 233 233 233 237 239 239 237 239 241 243
290 289 287 283 278 274 266 262 264 264 260 256 250 245 246 243 242 240 237 240 239 234 231 233 235 235 239 240 237 233 241 237
299 304 300 298 293 289 289 286 279 264 262 257 254 250 245 242 241 242 242 237 241 240 236 232 234 237 239 240 237 241 245 237
302 302 301 301 296 292 283 281 276 276 273 263 259 250 250 245 243 240 241 245 241 243 243 239 237 235 238 241 243 241 238 245
296 298 296 293 294 294 287 281 274 276 282 277 270 264 256 250 249 249 249 249 247 244 245 243 241 238 238 240 241 244 246 247
Height
5792 5793 5797 5803 5809 5816 5820 5822 5826 5829 5833 5835 5838 5843 5848 5853 5859 5863 5866 5868 5871 5874 5877 5878 5881 5884 5885 5885 5885 5886 5887 5890
5778 5778 5781 5787 5791 5798 5806 5811 5813 5818 5823 5827 5832 5835 5840 5843 5848 5852 5856 5860 5863 5867 5869 5872 5875 5878 5880 5882 5882 5883 5884 5886
5755 5761 5764 5768 5775 5778 5788 5796 5801 5804 5812 5819 5823 5828 5830 5832 5836 5841 5846 5850 5855 5860 5863 5866 5868 5871 5874 5876 5878 5879 5879 5882
5734 5738 5744 5749 5755 5760 5765 5778 5785 5791 5797 5805 5810 5816 5820 5825 5829 5833 5838 5843 5846 5850 5854 5858 5861 5864 5867 5869 5872 5874 5875 5876
5712 5716 5723 5730 5736 5741 5746 5756 5766 5774 5780 5786 5796 5802 5808 5815 5819 5822 5826 5830 5834 5838 5841 5846 5852 5855 5859 5863 5864 5868 5869 5871
5695 5699 5702 5710 5718 5723 5728 5735 5746 5757 5763 5770 5778 5787 5794 5801 5806 5810 5813 5820 5824 5827 5830 5836 5838 5844 5850 5854 5856 5860 5862 5864
5682 5685 5689 5691 5699 5707 5713 5718 5726 5738 5745 5753 5760 5769 5778 5785 5792 5798 5800 5806 5812 5819 5823 5826 5829 5832 5837 5845 5847 5848 5853 5855
5673 5674 5676 5680 5682 5690 5697 5704 5711 5720 5729 5735 5742 5750 5759 5769 5775 5782 5788 5792 5800 5806 5810 5817 5820 5823 5826 5831 5834 5838 5842 5845
5668 5667 5666 5667 5671 5675 5682 5690 5696 5704 5712 5719 5725 5731 5742 5749 5759 5767 5773 5780 5786 5793 5796 5802 5810 5812 5814 5817 5822 5825 5828 5833
5664 5662 5661 5660 5660 5664 5668 5674 5682 5689 5697 5704 5710 5715 5723 5732 5741 5750 5757 5764 5771 5777 5782 5786 5792 5798 5804 5808 5810 5814 5816 5821
5658 5658 5657 5656 5655 5655 5657 5662 5667 5676 5682 5690 5696 5700 5705 5713 5724 5733 5741 5747 5754 5761 5766 5771 5776 5782 5788 5794 5799 5803 5804 5807
5651 5652 5652 5652 5650 5650 5650 5651 5655 5661 5669 5674 5681 5687 5691 5696 5704 5713 5722 5730 5736 5743 5749 5757 5761 5766 5772 5776 5783 5790 5791 5796
5643 5644 5644 5645 5646 5644 5644 5644 5646 5648 5653 5659 5665 5671 5678 5681 5686 5694 5703 5712 5719 5725 5731 5739 5746 5749 5755 5761 5766 5773 5778 5784
5635 5635 5636 5636 5637 5638 5638 5637 5638 5640 5641 5642 5647 5654 5660 5666 5671 5675 5682 5691 5700 5706 5712 5719 5727 5732 5739 5743 5751 5756 5759 5767
5626 5626 5626 5627 5627 5627 5628 5629 5629 5629 5629 5630 5631 5635 5642 5648 5654 5658 5663 5672 5681 5687 5692 5700 5707 5712 5718 5724 5734 5741 5744 5752
5621 5620 5619 5618 5617 5616 5616 5616 5616 5617 5617 5618 5617 5620 5623 5630 5636 5642 5644 5651 5660 5668 5673 5679 5686 5692 5696 5705 5713 5718 5716 5732
5618 5616 5614 5611 5610 5609 5608 5607 5605 5603 5603 5604 5606 5608 5610 5614 5618 5624 5629 5632 5638 5647 5655 5660 5665 5668 5677 5686 5694 5698 5707 5710
5611 5609 5607 5605 5603 5601 5600 5600 5598 5595 5593 5592 5591 5592 5596 5600 5603 5607 5612 5615 5619 5624 5632 5638 5643 5648 5657 5665 5673 5681 5691 5692
5603 5601 5598 5597 5595 5594 5592 5591 5589 5588 5586 5584 5581 5579 5579 5583 5587 5590 5594 5597 5599 5603 5608 5615 5622 5629 5635 5642 5651 5659 5669 5679